Tracking 25612 objects as of 20-May-2022
HD Live streaming from Space Station
objects crossing your sky now

SATCOM 3 DEB

Track SATCOM 3 DEB now!


NORAD ID: 49956
Int'l Code: 1979-101AA
Perigee: 7,743.9 km
Apogee: 36,739.6 km
Inclination: 8.2 °
Period: 802.8 minutes
Semi major axis: 28612 km
RCS: Unknown
Launch date: December 7, 1979
Source: United States (US)
Launch site: AIR FORCE EASTERN TEST RANGE (AFETR)

Note: This is SATELLITE DEBRIS
aabbcc
Your satellite tracking list
Your tracking list is empty




NASA's NSSDC Master Catalog

Two Line Element Set (TLE):
1 49956U 79101AA  22138.47582802 -.00000110  00000-0  00000-0 0  9996
2 49956   8.1572 254.1054 5066914 143.5383 260.1238  1.79375549 73447
Source of the keplerian elements: AFSPC